Regional Weather Roundup
Issued by NWS Albany, NY

Home | Current Version | Previous Version | Text Only | Print | Product List | Glossary On
Versions: 1 2 3 4 5 6 7 8 9 10 11 12 13 14 15 16 17 18 19 20 21 22 23 24 25 26 27
000
ASUS41 KALY 242010
RWRALY

NEW YORK STATE HOURLY WEATHER ROUNDUP
NATIONAL WEATHER SERVICE ALBANY NY
400 PM EDT THU APR 24 2014

NOTE: "FAIR" INDICATES FEW OR NO CLOUDS BELOW 12,000 FEET WITH NO
SIGNIFICANT WEATHER AND/OR NO OBSTRUCTIONS TO VISIBILITY.

NYZ032-033-038>043-046>054-057>066-NYZ062>081-242100-
EAST


CITY           SKY/WX    TMP DP  RH WIND       PRES   REMARKS
ALBANY         MOSUNNY   57  12  17 NW25G35   29.88F
GLENS FALLS    SUNNY     59  20  22 NW22G36   29.88S
POUGHKEEPSIE   SUNNY     61  16  17 N16G25    29.86S
MONTGOMERY     SUNNY     59  12  15 NW22G30   29.87S
WHITE PLAINS   SUNNY     60  14  16 NW22G30   29.84S
ISLIP          MOSUNNY   62  12  14 NW24G35   29.81S
NEW YORK CITY  MOSUNNY   59  14  17 NW23G29   29.86F
CENTRAL PARK   SUNNY     60   9  13 NW12G30   29.90S
$$

NYZ005>009-017-018-044>046-055-056-242100-
CENTRAL


CITY           SKY/WX    TMP DP  RH WIND       PRES   REMARKS
FULTON         SUNNY     48  20  32 NW13      30.06F
SYRACUSE       MOSUNNY   51  20  29 NW14      30.06F
ROME           SUNNY     51  22  31 W17       30.01S
ELMIRA         SUNNY     56  14  19 N10G23    30.03F
BINGHAMTON     SUNNY     49  17  28 NW14G26   30.00S
MONTICELLO     SUNNY     54  14  20 NW23      29.93S
$$

NYZ026>034-041>043-242100-
NORTH


CITY           SKY/WX    TMP DP  RH WIND       PRES   REMARKS
WATERTOWN      SUNNY     50  25  37 W14       30.04S
FORT DRUM      NOT AVBL
MASSENA        SUNNY     52  17  25 NW15G21   30.01S
SARANAC LAKE   SUNNY     45  15  30 W15G23    29.92S
PLATTSBURGH    SUNNY     53  21  28 N21G33    29.91S
$$

NYZ001>004-010>016-019>021-242100-
WEST


CITY           SKY/WX    TMP DP  RH WIND       PRES   REMARKS
NIAGARA FALLS  MOSUNNY   50  14  23 W9        30.08F
BUFFALO        MOSUNNY   51  19  28 W9        30.08F
DUNKIRK        SUNNY     49  18  29 N7        30.10F
JAMESTOWN      SUNNY     48  19  32 NW9       30.06F
WELLSVILLE     SUNNY     51  13  21 N13       30.04F
ROCHESTER      MOSUNNY   52  17  25 N12G18    30.08F
PENN YAN       SUNNY     52  16  24 NW14G24   30.06F
$$

             KEY
       WCI = WIND CHILL INDEX
       VSB = VISIBILITY
       HX  = HEAT INDEX
$$



USA.gov is the U.S. government's official web portal to all federal, state and local government web resources and services.